Wind_Speed
41 45 49 56 65 72 73 71 66 67 79 92 101 102 100 98 95 89 83 78 75 72 73 75 74 71 68 65 61 60 58 55 51 48 48 53 55 55
38 41 46 51 59 67 72 72 67 64 67 80 95 102 101 98 95 91 87 82 78 76 74 74 74 72 69 67 63 60 57 55 52 51 51 53 56 57
35 37 42 47 53 61 68 71 68 62 60 67 82 97 100 97 93 92 89 86 81 78 76 75 74 72 70 68 66 63 60 56 52 51 50 51 53 56
31 34 38 43 48 55 63 68 68 64 58 59 71 85 96 95 91 90 89 87 85 81 78 75 74 73 70 68 67 65 63 60 58 54 50 48 49 50
27 30 34 39 44 49 57 63 65 64 59 56 62 74 86 89 86 85 87 88 86 84 81 76 74 73 71 69 67 65 64 62 59 57 54 51 48 47
23 27 30 35 39 44 51 57 61 61 60 56 57 66 78 83 82 81 83 86 85 84 83 79 76 74 71 70 67 65 64 63 60 58 57 56 53 50
19 24 27 31 35 39 45 51 55 56 57 56 56 63 74 81 81 79 79 82 84 83 82 81 78 75 73 71 69 66 65 63 61 59 58 57 56 53
17 22 25 29 32 35 40 45 49 50 52 53 54 61 72 81 82 80 78 80 82 81 80 80 80 77 74 72 69 67 66 64 62 60 60 59 58 56
16 21 25 28 31 33 36 39 42 43 45 47 51 58 70 84 84 80 78 79 80 81 80 78 78 76 74 72 70 68 67 66 64 63 61 60 59 57
16 21 25 28 30 32 33 35 36 37 38 40 44 52 66 83 90 83 77 76 77 80 80 77 76 75 73 71 69 67 67 66 66 65 64 62 61 59
17 22 26 29 30 31 32 32 32 33 34 35 38 45 58 77 93 92 82 76 76 78 79 76 74 72 71 69 67 66 65 65 66 66 65 64 62 60
16 22 27 29 30 31 30 29 29 29 30 31 34 39 48 65 86 95 91 82 78 77 77 74 70 69 69 68 64 63 62 62 62 63 63 63 62 60
15 22 26 29 30 30 29 28 27 26 27 28 31 34 41 53 69 84 91 88 81 78 75 71 68 66 66 66 65 62 60 59 59 59 59 60 60 59
13 20 25 28 29 29 28 27 26 25 25 27 30 33 37 44 53 65 77 84 83 79 74 71 67 64 63 62 62 61 60 58 57 56 56 56 56 56
10 17 24 27 28 28 28 27 26 25 25 26 28 30 34 39 46 54 63 73 77 77 73 68 64 60 58 58 58 57 57 57 56 55 54 54 54 54
5 13 21 27 28 28 28 27 27 26 26 26 26 27 30 35 40 48 55 62 68 70 70 66 63 60 57 56 55 54 54 52 52 53 54 55 56 55
1 8 17 24 28 29 28 28 27 27 26 26 26 27 28 31 35 42 50 56 61 64 65 65 63 61 59 57 56 55 54 54 54 54 54 56 56 56
6 3 11 20 26 29 29 29 28 28 28 27 28 28 28 29 33 39 46 52 57 60 62 63 61 59 58 56 56 55 54 54 55 56 56 57 58 58
12 4 4 14 22 28 30 30 29 29 29 28 29 30 29 30 31 36 43 50 55 59 61 62 62 61 58 57 57 56 55 56 57 58 59 58 59 59
24 13 4 6 16 24 30 32 32 31 30 30 30 31 31 31 32 34 40 47 53 58 61 63 62 61 59 58 58 59 59 58 58 57 57 58 58 58
38 26 14 3 7 17 26 32 34 33 32 32 32 33 34 33 34 34 37 42 50 56 61 63 62 61 60 59 58 59 59 59 58 56 56 55 54 52
45 40 28 16 4 7 18 28 34 36 36 34 34 35 36 36 36 36 37 38 43 51 57 59 60 60 59 58 57 56 55 55 55 54 52 51 50 48
44 42 39 30 18 5 7 19 29 35 38 38 37 37 38 39 39 39 39 39 41 44 49 53 55 57 57 57 55 54 52 50 49 49 49 48 46 44
Wind_Direction
247 239 231 226 222 219 218 217 219 223 222 218 216 215 214 215 217 218 218 218 219 220 222 223 223 223 222 223 224 226 229 231 231 230 227 225 226 227
246 238 230 225 221 218 216 216 216 219 222 220 218 216 214 215 217 218 219 219 219 220 221 223 224 224 223 222 223 224 226 227 227 228 227 227 227 229
242 236 229 223 219 216 215 214 214 215 218 220 220 217 214 214 216 217 218 219 219 219 220 222 223 224 223 221 221 223 225 225 223 224 225 227 229 229
237 232 227 221 217 215 213 212 213 214 215 218 220 218 215 213 214 216 217 219 218 218 219 220 222 223 223 222 221 222 225 226 226 226 226 228 232 232
230 227 223 218 215 213 211 211 211 213 214 216 219 217 214 212 211 212 215 218 219 218 218 219 220 222 223 222 222 222 224 227 228 229 230 230 232 233
222 220 217 214 211 209 209 209 210 212 214 216 218 215 212 209 209 209 211 214 217 218 219 219 220 221 222 223 222 223 224 226 228 229 231 232 233 235
213 212 210 207 205 205 205 206 208 212 215 217 218 215 211 207 205 206 208 210 213 216 217 218 220 221 222 222 223 223 224 225 227 229 230 232 235 236
204 203 202 198 197 198 200 203 206 210 214 217 218 215 210 206 202 201 204 206 209 212 214 217 219 220 221 222 222 223 224 225 227 229 230 232 235 237
197 196 194 191 191 193 194 197 202 207 213 217 218 216 210 206 200 197 199 203 206 208 211 214 216 218 220 221 222 222 223 224 226 229 231 233 235 237
192 191 189 187 187 189 191 194 199 204 209 214 217 216 211 206 201 196 195 198 203 206 208 210 213 215 217 219 220 221 223 224 226 228 231 234 236 238
192 189 186 185 186 187 189 191 195 201 206 211 214 214 212 207 205 201 195 195 198 204 206 207 209 212 215 216 217 219 221 223 225 227 230 233 236 238
195 190 187 186 187 188 189 190 194 199 205 209 211 210 209 208 208 207 204 200 199 201 204 206 207 210 212 213 213 215 218 220 222 225 228 231 235 238
199 193 190 189 189 190 190 191 193 197 202 204 205 205 205 205 208 210 211 207 204 203 204 205 206 210 213 213 213 214 216 219 221 224 227 229 233 236
203 197 195 194 193 192 192 192 192 194 196 198 199 200 200 201 203 207 211 211 209 207 207 208 209 212 215 216 216 217 217 219 221 224 227 229 231 234
210 202 199 198 197 195 195 194 193 192 192 194 195 197 198 198 198 200 205 209 210 211 209 208 209 211 214 217 217 219 221 222 222 224 226 228 231 234
222 209 204 202 201 199 198 196 195 192 191 191 193 193 194 195 196 195 197 201 205 207 207 206 207 209 212 215 216 217 219 222 225 226 226 227 229 231
288 215 209 206 205 204 201 199 196 194 191 190 190 189 190 192 194 193 192 195 198 200 201 201 203 206 209 213 216 217 218 220 222 225 227 228 229 231
14 231 212 210 208 207 205 202 199 196 194 192 190 189 188 189 192 193 191 192 193 195 197 199 201 204 208 212 215 217 218 220 222 223 226 228 231 234
23 14 218 212 211 210 208 206 203 199 196 194 192 191 190 189 190 192 192 192 192 194 195 196 199 202 205 210 214 216 219 222 223 224 225 229 232 234
31 27 16 216 212 211 210 209 207 203 200 197 194 192 190 189 188 189 192 193 193 193 195 197 199 202 206 210 215 217 218 221 224 226 228 230 233 234
33 32 30 19 217 212 212 211 210 208 205 201 198 195 193 191 190 189 189 193 195 195 196 197 200 202 206 209 213 217 221 223 225 227 228 230 232 234
34 34 34 32 23 218 214 213 212 211 209 207 204 200 197 195 194 192 190 190 193 197 198 200 202 204 206 209 211 216 220 223 225 226 227 230 233 236
33 34 35 35 33 25 221 216 214 213 212 211 209 207 203 201 199 197 196 194 194 196 198 201 203 205 207 209 211 213 215 217 220 222 225 228 231 233
Height
5345 5350 5358 5367 5378 5392 5407 5421 5433 5443 5457 5473 5490 5506 5524 5543 5560 5576 5591 5605 5618 5631 5642 5654 5666 5678 5690 5700 5710 5719 5726 5733 5741 5749 5755 5762 5768 5774
5331 5336 5343 5352 5363 5376 5391 5406 5420 5431 5441 5456 5470 5488 5507 5526 5544 5561 5576 5591 5604 5617 5629 5641 5653 5665 5678 5689 5700 5709 5716 5724 5731 5738 5744 5751 5758 5765
5319 5324 5330 5339 5349 5362 5376 5391 5406 5419 5432 5441 5453 5470 5490 5512 5529 5545 5561 5576 5590 5604 5616 5629 5641 5653 5665 5678 5688 5698 5706 5714 5721 5727 5733 5741 5748 5755
5308 5313 5320 5328 5338 5350 5363 5379 5394 5409 5421 5429 5439 5455 5475 5496 5514 5531 5547 5562 5577 5591 5603 5616 5629 5641 5653 5665 5677 5687 5696 5705 5713 5719 5725 5732 5738 5744
5300 5305 5311 5320 5330 5341 5353 5368 5383 5398 5410 5419 5428 5442 5462 5483 5501 5517 5533 5548 5563 5577 5590 5603 5616 5629 5641 5653 5665 5676 5686 5696 5704 5711 5717 5723 5728 5734
5294 5299 5305 5313 5323 5333 5345 5358 5373 5387 5399 5410 5419 5431 5449 5468 5487 5504 5519 5534 5549 5564 5577 5590 5603 5616 5629 5642 5655 5665 5675 5684 5693 5701 5707 5713 5719 5724
5290 5295 5301 5309 5318 5328 5339 5351 5364 5377 5389 5399 5408 5420 5435 5455 5474 5490 5506 5520 5535 5549 5563 5578 5592 5605 5616 5629 5641 5653 5664 5673 5682 5690 5697 5703 5708 5714
5289 5294 5299 5306 5315 5324 5334 5345 5357 5368 5379 5388 5397 5408 5422 5441 5460 5476 5491 5506 5522 5538 5552 5564 5578 5591 5604 5617 5629 5641 5652 5662 5671 5679 5686 5692 5699 5704
5289 5293 5298 5305 5313 5322 5331 5341 5351 5361 5371 5379 5388 5397 5409 5427 5447 5464 5477 5492 5508 5524 5538 5552 5565 5578 5592 5604 5616 5628 5639 5649 5659 5667 5674 5681 5688 5694
5289 5293 5299 5305 5312 5320 5329 5338 5347 5356 5364 5373 5380 5389 5399 5415 5433 5449 5464 5479 5494 5510 5525 5540 5552 5566 5579 5591 5603 5615 5627 5637 5647 5655 5663 5670 5677 5684
5290 5294 5299 5305 5312 5320 5328 5337 5345 5352 5359 5367 5374 5381 5390 5402 5418 5433 5449 5465 5482 5497 5513 5528 5541 5554 5566 5579 5591 5603 5614 5625 5634 5643 5652 5659 5666 5673
5291 5295 5300 5306 5312 5320 5327 5335 5343 5349 5356 5363 5369 5375 5383 5392 5404 5418 5434 5452 5469 5486 5501 5517 5531 5543 5555 5567 5579 5591 5602 5612 5622 5631 5640 5648 5655 5662
5293 5297 5302 5307 5313 5320 5327 5334 5341 5348 5354 5360 5366 5372 5378 5386 5396 5408 5423 5441 5459 5476 5493 5507 5521 5534 5547 5559 5570 5581 5592 5602 5611 5620 5628 5636 5644 5651
5294 5298 5302 5308 5314 5320 5327 5333 5340 5346 5352 5358 5364 5369 5375 5382 5391 5402 5416 5433 5450 5467 5484 5499 5515 5528 5540 5552 5562 5572 5582 5593 5602 5611 5619 5626 5633 5640
5295 5298 5303 5308 5314 5321 5327 5333 5339 5345 5351 5357 5362 5368 5374 5380 5388 5398 5412 5427 5444 5460 5477 5492 5507 5520 5531 5544 5555 5565 5574 5583 5591 5600 5608 5616 5623 5629
5297 5299 5303 5308 5314 5320 5327 5333 5339 5344 5350 5356 5362 5368 5374 5380 5387 5396 5408 5422 5437 5453 5468 5483 5497 5509 5522 5533 5544 5555 5565 5574 5582 5590 5598 5604 5610 5617
5298 5300 5303 5308 5314 5320 5326 5332 5337 5343 5349 5355 5361 5367 5373 5380 5386 5394 5404 5416 5431 5446 5460 5474 5487 5500 5512 5523 5532 5543 5554 5562 5571 5578 5585 5593 5599 5605
5301 5301 5303 5307 5312 5318 5324 5330 5336 5342 5348 5354 5360 5366 5373 5379 5385 5392 5401 5412 5425 5439 5453 5467 5480 5492 5503 5513 5522 5532 5542 5550 5558 5566 5573 5580 5587 5594
5304 5303 5304 5306 5311 5316 5322 5329 5335 5340 5346 5352 5359 5365 5371 5378 5384 5391 5399 5409 5420 5433 5446 5459 5472 5484 5494 5504 5512 5521 5530 5539 5546 5554 5561 5569 5576 5583
5308 5306 5306 5307 5309 5314 5320 5326 5332 5339 5345 5351 5357 5363 5370 5376 5383 5389 5397 5405 5416 5427 5439 5451 5463 5474 5486 5495 5503 5511 5518 5527 5534 5542 5549 5556 5564 5571
5316 5311 5309 5308 5309 5312 5317 5323 5329 5336 5342 5348 5354 5361 5367 5374 5381 5388 5395 5402 5412 5422 5432 5443 5454 5465 5475 5484 5492 5499 5507 5515 5523 5530 5538 5545 5553 5561
5326 5319 5314 5311 5311 5312 5315 5319 5325 5332 5339 5345 5352 5358 5365 5371 5378 5386 5393 5400 5408 5417 5426 5436 5445 5455 5464 5473 5481 5489 5496 5504 5511 5519 5527 5536 5543 5551
5336 5329 5323 5318 5314 5313 5314 5317 5322 5328 5334 5341 5348 5354 5361 5368 5375 5382 5389 5397 5405 5412 5421 5429 5438 5446 5455 5463 5471 5479 5487 5494 5502 5510 5518 5525 5534 5541